India Forums Logo

Hum ne li hai... Shapath

India Forums > Forum Index > Hum ne li hai... Shapath
Hum ne li hai... Shapath is a story of tough cops against the flawed system with thrilling and contemporary police cases weaved in.
<< | 1 | 2 | 3 | 4 | 5 | 6 | 7 | 8 | 9 | 10 | 11 | 12 | 13 | 14 | 15 | 16 | 17 | >>
TIDTopic SubjectStart DateLast Entry
3109630Shapath now in 517/23/2012 1:00:57 AM7/24/2012 9:15:47 AM
3110831Hasan : A Father now..7/23/2012 10:42:26 AM7/23/2012 8:09:28 PM
3110899||The New Father Hasan Zaidi AT #2||7/23/2012 11:01:40 AM8/10/2012 7:54:17 AM
3111882TellyBuzz : A baby girl is born to Hasan Zaidi7/24/2012 2:18:48 AM7/24/2012 2:18:48 AM
3114599The Kinds Of Cases...7/25/2012 9:51:30 AM7/28/2012 3:08:44 AM
3115933Kuldeep Malik back in Hum Ne Li Hai Shapath7/26/2012 4:49:20 AM7/27/2012 6:07:50 AM
3116390Does Shaurya Have A Right?7/26/2012 9:27:33 AM7/31/2012 5:46:32 PM
3119466*~*HNLHS Banner Contest*~* (Closed)7/27/2012 4:56:27 PM8/23/2012 1:03:01 PM
3121677COTW 4: Whose the Actor (Closed)7/29/2012 3:12:11 PM8/1/2012 9:34:11 AM
3121679Newsletter Time!!!!7/29/2012 3:14:33 PM8/3/2012 9:06:22 AM
3122021Shapath ranking Up7/30/2012 2:11:40 AM7/30/2012 2:11:40 AM
3122174Piyush to Perform !!!7/30/2012 4:19:32 AM8/7/2012 6:05:49 AM
3122272Shapath again in 357/30/2012 5:32:20 AM7/30/2012 5:32:20 AM
3122291Abhigyan was just mind blowing yesterday(29thJuly)7/30/2012 5:42:24 AM8/1/2012 7:35:20 AM
3122352GOTW: Antakshari With Words (closed)7/30/2012 6:12:48 AM8/4/2012 12:55:23 PM
3123259HNLHS CM and Actor Rating (pg. 5)7/30/2012 1:16:58 PM8/20/2012 12:35:48 PM
312429329/07/2012 WU: Bombs and Terrorists7/31/2012 9:13:47 AM8/1/2012 5:51:03 AM
3124761Darshan Dave enters Shapath yeahhh :)7/31/2012 12:11:55 PM8/5/2012 1:50:02 AM
3124911TB: Hasan Zaidi is Now a Proud Father7/31/2012 1:51:38 PM7/31/2012 1:51:38 PM
3124922Written Updaters Needed7/31/2012 2:03:40 PM8/16/2012 6:58:10 PM
3124951Gautam and Shika Vm on Khudaaya Tu Bata !!!!7/31/2012 2:44:02 PM8/4/2012 2:42:51 AM
3125109Describe This Serial In One Word...7/31/2012 6:44:54 PM8/2/2012 2:48:39 AM
3131570The Cool and Dashing Police Officer Abhigyan8/5/2012 12:26:12 AM8/9/2012 6:19:09 PM
3131601Inspector8/5/2012 1:13:59 AM8/7/2012 1:54:09 PM
3132143GOTW: The 'A' Word (Closed)8/5/2012 11:25:17 AM8/12/2012 4:26:55 PM
3132176COTW 4 Winners and COTW 5: Name that Person8/5/2012 12:07:33 PM8/8/2012 7:58:27 AM
3132316shika8/5/2012 5:27:23 PM8/7/2012 5:15:52 AM
3132728Aug 4,2012 Written update8/6/2012 4:12:56 AM8/6/2012 11:05:53 AM
3135935ure the best abigyan8/7/2012 11:26:05 AM8/7/2012 1:51:02 PM
3136422A Sweet Pet Name For All The Actors8/7/2012 5:50:08 PM8/8/2012 2:18:21 AM
3136447||Khooni Kaun? NL #1||8/7/2012 6:36:05 PM8/9/2012 10:59:15 PM
313728408/05/2012 WU: Ladki ki Laash Gayab8/8/2012 6:47:17 AM8/9/2012 6:00:08 AM
3139524Happy birthday MISABH8/9/2012 7:52:38 AM8/10/2012 9:48:27 AM
3139956Deleted because they are against IF rules8/9/2012 10:16:06 AM8/9/2012 10:43:26 AM
3140006Poll for best actor in emotional roles8/9/2012 10:30:19 AM8/27/2012 5:41:09 AM
3140587||The Strong Hasan Zaidi AT#3||8/9/2012 5:19:09 PM10/20/2012 8:20:03 PM
3140609||Superb Inspector Shaurya AT#1||8/9/2012 5:50:38 PM3/1/2013 10:15:31 PM
3140765HAPPY BIRTHDAY ZARIYAT8/9/2012 9:21:52 PM8/15/2012 1:20:29 AM
3142326Forum Birthday Contest Thread8/10/2012 6:29:30 PM8/20/2012 8:43:56 AM
3142718Sarwar Ahuja and Piyush S will perfiorm together8/11/2012 2:55:52 AM8/27/2012 1:31:49 AM
3142917shapath8/11/2012 6:39:25 AM8/11/2012 7:28:57 AM
3143803ACP's Daughter8/12/2012 2:59:31 AM8/12/2012 1:46:29 PM
3144460GOTW: Antakshari with Actor or Character8/12/2012 4:26:28 PM8/15/2012 10:12:12 AM
3144493COTW 5 Winners and COTW 6: Whose This?8/12/2012 5:46:00 PM8/20/2012 6:10:37 AM
314463712th August Episode8/12/2012 10:21:31 PM8/14/2012 9:24:06 AM
3145944Aug 11,2012 Written Update8/13/2012 11:49:10 AM8/13/2012 1:30:03 PM
314722912/08/2012 WU: Independence Day Special Part 28/14/2012 8:02:22 AM8/17/2012 5:56:08 AM
3147724Prem Kahani8/14/2012 10:10:53 AM8/15/2012 12:04:32 AM
3148605<:Happy Independence Day:>8/14/2012 8:31:56 PM8/15/2012 10:42:36 AM
3149441||Azaadi Special NL # 2||8/15/2012 8:14:30 AM8/19/2012 11:22:51 AM
3152359Darshan Dave, officer Samarth of 'Shapath' in Sonu8/17/2012 1:39:04 AM9/3/2012 8:08:13 AM
3152592~The Majestic Persoanlity Inspector Abhigyan AT#2~8/17/2012 4:58:16 AM9/16/2012 4:34:25 AM
3153679ACP Karanveer8/17/2012 9:34:40 PM8/20/2012 2:24:23 PM
3153811Aamir Dalvi and Dakssh Ajit Singh - the new cops8/18/2012 12:27:50 AM8/19/2012 6:57:04 PM
3153817Milind Gunaji to enter Hum Ne Li Hai Shapath8/18/2012 12:31:23 AM8/21/2012 1:38:08 AM
3153952Zohaib's entry in SSLK8/18/2012 3:24:22 AM8/18/2012 2:44:32 PM
3153961Laut ayi Gautam ki Shikha8/18/2012 3:32:45 AM8/20/2012 7:01:24 AM
3155395FF: GauShi Love-Story(Pending...)8/19/2012 10:39:24 AM4/11/2013 7:54:19 PM
3156303COTW 6 Winners8/20/2012 7:55:24 AM8/20/2012 7:55:24 AM
3156326GOTW: The 'L' Word (Closed)8/20/2012 8:05:11 AM8/26/2012 2:58:23 PM
3156329real name of Aditya,Vikas and Mayank8/20/2012 8:05:46 AM8/20/2012 9:54:29 AM
3156990Divya Taneja to enter Hum Ne Li Hai... Shapath8/20/2012 12:16:33 PM8/22/2012 10:24:17 AM
3158261COTW 7: Pehchaan Kaun?( Hints Added) (Closed)8/21/2012 9:23:15 AM8/22/2012 10:19:41 AM
3162226||HNLHS Banner Contest Voting||8/23/2012 5:27:38 PM9/8/2012 10:22:07 AM
3162729Aamir Dalvi's moustache tale8/24/2012 4:58:01 AM8/24/2012 7:02:00 PM
3164336TB:Aaradhana Uppal to enter Hum Ne Li Hai- Shapath8/25/2012 5:10:53 AM8/25/2012 9:38:34 AM
3164914kya sharya bache ga ??8/25/2012 3:23:28 PM8/26/2012 2:32:28 PM
3165128FACEBOOK AWARDS8/25/2012 10:41:21 PM8/26/2012 12:54:49 AM
316561525/08/2012 WU: The Aftermath of the Blast8/26/2012 10:04:04 AM8/28/2012 8:48:04 AM
3165691did Hasan and Piyush leave the show?8/26/2012 11:09:55 AM9/4/2012 7:54:48 AM
3165846GOTW: Keep or Kill (Closed)8/26/2012 2:59:13 PM9/9/2012 3:23:33 PM
3166126FW8/27/2012 2:04:12 AM9/10/2012 7:05:44 AM
316643426/08/2012 WU: Shaurya's Look-Alike8/27/2012 6:00:23 AM8/28/2012 6:08:38 AM
3166875pyar...khushi ya gham8/20/2012 9:38:51 AM8/27/2012 1:55:10 PM
3168118Fav Team8/28/2012 5:35:32 AM8/28/2012 5:35:32 AM
<< | 1 | 2 | 3 | 4 | 5 | 6 | 7 | 8 | 9 | 10 | 11 | 12 | 13 | 14 | 15 | 16 | 17 | >>